WMT113 LRCL-LHBP

Flight info

Callsign WMT113
Flight time N/A
Altitude 34000
Route LARMU DCT IZDUW DCT BALUX DCT TORNO DCT NATEX NATEX2W
Aircraft A320/M-SDE3FGHIRWY/LB1

Departure

Time N/A
Airport Avram Iancu Cluj International Airport (LRCL)

Arrival

Time 2026-05-04 20:01
Airport Budapest Liszt Ferenc International Airport (LHBP)
Time Latitude Longitude Altitude Speed Heading
2026-05-04 19:45 47.56504 18.29763 19781 ft 240 kts 232°
2026-05-04 19:45 47.55245 18.28115 19272 ft 249 kts 204°
2026-05-04 19:46 47.53557 18.27546 18899 ft 252 kts 176°
2026-05-04 19:46 47.51819 18.27926 18539 ft 255 kts 172°
2026-05-04 19:46 47.50025 18.28154 18053 ft 262 kts 179°
2026-05-04 19:46 47.48184 18.28043 17575 ft 266 kts 186°
2026-05-04 19:47 47.46382 18.27803 17555 ft 254 kts 186°
2026-05-04 19:47 47.44669 18.27587 17551 ft 240 kts 186°
2026-05-04 19:47 47.43035 18.27380 17562 ft 234 kts 185°
2026-05-04 19:47 47.41426 18.27638 17553 ft 235 kts 161°
2026-05-04 19:48 47.40032 18.28889 17463 ft 238 kts 135°
2026-05-04 19:48 47.39140 18.30933 17137 ft 242 kts 108°
2026-05-04 19:48 47.38963 18.33427 16664 ft 251 kts 80°
2026-05-04 19:48 47.39539 18.35817 16374 ft 251 kts 64°
2026-05-04 19:49 47.40292 18.38113 16374 ft 239 kts 66°
2026-05-04 19:49 47.40960 18.40326 16628 ft 238 kts 70°
2026-05-04 19:49 47.41541 18.42600 16907 ft 235 kts 73°
2026-05-04 19:49 47.42060 18.44986 16323 ft 260 kts 72°
2026-05-04 19:50 47.42638 18.47632 15532 ft 280 kts 71°
2026-05-04 19:50 47.43282 18.50438 14799 ft 297 kts 70°
2026-05-04 19:50 47.44008 18.53369 14155 ft 309 kts 68°
2026-05-04 19:50 47.44880 18.56201 14139 ft 296 kts 66°
2026-05-04 19:51 47.45740 18.58885 14138 ft 282 kts 66°
2026-05-04 19:51 47.46541 18.61461 14135 ft 269 kts 72°
2026-05-04 19:51 47.46846 18.64082 14141 ft 252 kts 94°
2026-05-04 19:51 47.46746 18.66592 14116 ft 239 kts 96°
2026-05-04 19:52 47.46639 18.69021 13901 ft 236 kts 96°
2026-05-04 19:52 47.46714 18.71415 13686 ft 233 kts 75°
2026-05-04 19:52 47.47488 18.73503 13349 ft 235 kts 46°
2026-05-04 19:52 47.48840 18.74870 12835 ft 242 kts 28°
2026-05-04 19:53 47.50289 18.76422 11839 ft 267 kts 44°
2026-05-04 19:53 47.51590 18.78293 11676 ft 252 kts 45°
2026-05-04 19:53 47.52790 18.80078 11541 ft 238 kts 46°
2026-05-04 19:53 47.53930 18.81782 11248 ft 230 kts 46°
2026-05-04 19:54 47.55050 18.83465 10891 ft 230 kts 46°
2026-05-04 19:54 47.56178 18.85182 10467 ft 234 kts 47°
2026-05-04 19:54 47.57295 18.86904 10140 ft 228 kts 46°
2026-05-04 19:54 47.58433 18.88650 9264 ft 244 kts 46°
2026-05-04 19:55 47.59642 18.90545 8267 ft 261 kts 51°
2026-05-04 19:55 47.60568 18.92919 7256 ft 274 kts 73°
2026-05-04 19:55 47.60647 18.95736 6255 ft 280 kts 108°
2026-05-04 19:55 47.59688 18.98190 5066 ft 277 kts 135°
2026-05-04 19:56 47.58365 19.00184 4379 ft 262 kts 137°
2026-05-04 19:56 47.57149 19.02076 3983 ft 245 kts 136°
2026-05-04 19:56 47.56013 19.03908 3671 ft 240 kts 136°
2026-05-04 19:56 47.54937 19.05671 3369 ft 225 kts 135°
2026-05-04 19:57 47.53935 19.07323 3101 ft 206 kts 136°
2026-05-04 19:57 47.53033 19.08802 2831 ft 181 kts 137°
2026-05-04 19:57 47.52252 19.10081 2625 ft 153 kts 137°
2026-05-04 19:57 47.51585 19.11173 2420 ft 134 kts 139°
2026-05-04 19:58 47.50974 19.12162 2241 ft 127 kts 139°
2026-05-04 19:58 47.50382 19.13119 2080 ft 125 kts 139°
2026-05-04 19:58 47.49798 19.14065 1917 ft 124 kts 139°
2026-05-04 19:58 47.49215 19.15007 1751 ft 124 kts 139°
2026-05-04 19:59 47.48627 19.15934 1573 ft 124 kts 138°
2026-05-04 19:59 47.48047 19.16884 1404 ft 125 kts 135°
2026-05-04 19:59 47.47476 19.17849 1257 ft 125 kts 134°
2026-05-04 19:59 47.46892 19.18805 1067 ft 125 kts 134°
2026-05-04 20:00 47.46302 19.19749 940 ft 126 kts 133°
2026-05-04 20:00 47.45710 19.20692 737 ft 123 kts 133°
2026-05-04 20:00 47.45138 19.21635 592 ft 123 kts 131°
2026-05-04 20:00 47.44563 19.22565 458 ft 117 kts 129°
2026-05-04 20:01 47.44201 19.23158 458 ft 34 kts 133°
2026-05-04 20:01 47.44104 19.23309 455 ft 20 kts 133°
2026-05-04 20:01 47.44002 19.23468 454 ft 23 kts 133°
2026-05-04 20:01 47.43908 19.23622 455 ft 11 kts 131°
2026-05-04 20:02 47.43853 19.23712 457 ft 13 kts 139°
2026-05-04 20:02 47.43781 19.23678 459 ft 13 kts 246°
2026-05-04 20:02 47.43762 19.23532 459 ft 16 kts 262°
2026-05-04 20:02 47.43761 19.23512 459 ft 0 kts 265°
2026-05-04 20:03 47.43760 19.23494 458 ft 4 kts 265°
2026-05-04 20:03 47.43754 19.23422 457 ft 10 kts 262°
2026-05-04 20:03 47.43739 19.23297 455 ft 15 kts 258°
2026-05-04 20:04 47.43716 19.23112 449 ft 21 kts 271°
2026-05-04 20:04 47.43708 19.22878 434 ft 22 kts 298°
2026-05-04 20:04 47.43781 19.22806 436 ft 14 kts 323°
2026-05-04 20:04 47.43836 19.22745 438 ft 15 kts 322°
2026-05-04 20:05 47.43894 19.22588 429 ft 17 kts 227°
2026-05-04 20:05 47.43773 19.22604 432 ft 14 kts 135°
2026-05-04 20:05 47.43758 19.22673 441 ft 4 kts 54°
2026-05-04 20:05 47.43778 19.22659 434 ft 3 kts 295°
2026-05-04 20:06 47.43778 19.22653 438 ft 0 kts 280°